Regional Weather Roundup
Issued by NWS

Home | Current Version | Previous Version | Text Only | Print | Product List | Glossary Off
Versions: 1 2 3 4 5 6 7 8 9 10 11 12 13 14 15 16 17 18 19 20 21 22 23 24 25 26 27 28 29 30 31 32 33 34 35 36 37 38 39 40 41 42 43 44 45 46 47 48 49 50

000
ASUS43 KLSX 211657
RWRMO

WEATHER SUMMARY FOR MISSOURI
NATIONAL WEATHER SERVICE SPRINGFIELD MO
1200 PM CDT THU SEP 21 2017

NOTE: "FAIR" INDICATES FEW OR NO CLOUDS BELOW 12,000 FEET WITH NO
       SIGNIFICANT WEATHER AND/OR OBSTRUCTIONS TO VISIBILITY.
       CURRENT SKY AND/OR WEATHER CONDITIONS ARE NOT AVAILABLE FOR
       CHILLICOTHE AND FARMINGTON.

MOZ001>031-035>038-043-044-053-054-211800-
...NORTHERN AND WESTERN MISSOURI...

CITY           SKY/WX    TMP DP  RH WIND       PRES   REMARKS
KANSAS CTY INT MOSUNNY   85  74  69 S15       29.92F HX  92
LEE`S SUMMIT   SUNNY     87  74  64 S15       29.94F HX  95
ST JOSEPH      SUNNY     88  74  63 S13G21    29.89F HX  96
CHILLICOTHE      N/A     80  72  76 E14G21    29.97F

$$
MOZ066>068-077>081-088>096-101>105-211800-
...SOUTHWEST MISSOURI...

CITY           SKY/WX    TMP DP  RH WIND       PRES   REMARKS
SPRINGFIELD    SUNNY     88  72  58 S10       30.01F HX  94
JOPLIN         MOSUNNY   87  75  67 S15       29.97F HX  96
BRANSON        MOSUNNY   88  70  55 S7        30.04F HX  92

$$
MOZ032>034-039>042-045>050-055>058-069>072-211800-
...CENTRAL MISSOURI...

CITY           SKY/WX    TMP DP  RH WIND       PRES   REMARKS
COLUMBIA       NOT AVBL
JEFFERSON CITY SUNNY     87  73  62 S7        29.99F HX  94
ROLLA          MOSUNNY   89  71  55 S14       30.04F HX  95
SEDALIA        SUNNY     89  76  65 S12       30.00F HX 100
WARRENSBURG    SUNNY     86  72  62 SE13      29.96  HX  92

$$
MOZ051-052-059>065-211800-
...EAST CENTRAL MISSOURI...

CITY           SKY/WX    TMP DP  RH WIND       PRES   REMARKS
ST LOUIS INTL  CLOUDY    83  73  72 E8        30.04S

$$
MOZ072>076-082>087-097>100-106>115-211800-
...SOUTH CENTRAL AND SOUTHEAST MISSOURI...

CITY           SKY/WX    TMP DP  RH WIND       PRES   REMARKS
CAPE GIRARDEAU MOSUNNY   88  71  57 S8        30.04F HX  94
POPLAR BLUFF   PTSUNNY   89  73  59 S9        30.04F HX  97
WEST PLAINS    MOSUNNY   86  70  58 S7        30.07F HX  90

$$



USA.gov is the U.S. government's official web portal to all federal, state and local government web resources and services.